Temperature
20 20 20 19 18 18 19 20 21 21 21 21 21 20 19 19 19 18 17 18 18 18 18 18 18 18 18 18 18 18 18 18 18 18 18 18 18 18 18 18 18 18 18 18 18 18 18 18 18
20 20 20 19 18 18 19 20 20 21 21 21 20 20 19 18 17 17 17 18 18 18 18 18 18 18 18 18 18 18 18 18 18 18 18 18 18 18 17 17 17 17 17 18 18 18 18 18 18
20 20 20 17 18 19 20 20 21 22 22 21 20 19 18 18 17 17 18 18 18 18 18 18 18 18 18 18 18 18 17 17 17 17 17 17 17 17 17 17 17 17 17 17 17 17 17 17 17
21 20 20 18 19 19 20 20 21 21 21 21 20 18 18 18 18 18 18 18 18 18 18 18 18 18 18 18 18 17 17 17 17 17 17 17 17 17 17 17 17 17 17 17 17 17 17 17 17
21 20 18 18 19 20 20 21 22 21 20 20 19 18 17 18 18 18 18 18 18 18 18 18 18 18 18 18 18 17 17 17 17 17 17 17 17 17 17 17 17 17 17 17 17 17 17 17 17
20 18 18 18 19 20 20 21 21 20 20 19 19 17 17 17 18 18 18 18 18 18 18 18 18 18 18 18 17 17 17 17 17 17 17 17 17 17 17 17 17 17 17 17 17 17 17 17 17
20 17 18 19 19 20 21 21 20 20 20 19 19 17 17 17 17 18 18 18 18 18 18 18 18 18 18 17 17 17 17 17 17 17 17 17 17 16 16 16 17 17 17 17 17 17 17 17 17
21 17 18 18 19 20 21 21 20 20 19 19 19 17 17 17 17 17 17 17 17 17 17 18 18 18 18 17 17 17 17 17 17 17 17 17 16 16 16 16 16 17 17 17 17 17 17 17 17
21 17 18 19 19 19 21 21 20 20 19 19 19 18 18 17 17 17 17 17 17 17 17 17 17 17 17 17 17 17 17 17 17 17 17 17 16 16 16 16 16 16 16 16 17 17 17 17 17
20 17 19 20 20 19 20 21 20 19 18 17 17 18 17 17 17 17 17 17 17 17 17 17 17 17 17 17 17 17 17 17 17 17 17 17 16 16 16 16 16 16 16 16 17 17 17 17 17
19 18 19 20 20 20 20 20 20 19 18 18 17 17 17 17 17 17 17 18 18 17 17 17 17 17 17 17 17 17 17 17 17 17 17 17 16 16 16 16 16 16 16 16 16 17 17 17 16
20 20 20 20 21 21 20 20 20 19 19 19 19 18 17 17 17 18 18 18 18 17 17 17 17 17 17 17 17 17 17 17 17 17 17 17 17 16 17 16 16 16 16 16 16 16 17 17 16
20 20 20 21 21 21 20 20 19 19 19 19 18 18 18 18 17 17 18 18 18 18 17 17 17 17 17 17 17 17 17 17 17 17 17 17 17 17 17 17 16 16 16 16 16 16 16 16 16
20 20 20 20 20 21 20 19 19 19 19 18 18 18 18 18 18 17 18 18 18 18 18 17 17 17 17 17 17 17 17 17 17 17 17 17 17 17 16 16 16 16 16 16 16 16 16 16 16
20 19 19 20 20 20 20 19 19 19 19 18 18 18 18 18 18 18 18 18 18 18 18 17 17 17 17 17 17 17 17 17 17 17 17 17 17 17 16 16 16 16 16 16 16 16 16 16 16
20 19 18 19 20 20 20 18 18 19 19 18 18 18 18 18 18 18 18 18 18 18 18 17 17 17 17 17 17 17 17 17 17 17 17 17 16 16 16 16 16 16 16 16 16 16 16 16 16
18 18 18 19 20 20 19 18 18 19 19 18 18 18 18 18 18 18 18 18 18 18 18 18 17 17 17 17 17 17 17 17 17 17 17 16 16 16 16 16 16 16 16 16 16 16 16 16 16
18 18 18 19 20 19 18 17 18 19 19 18 18 18 18 18 18 18 18 18 18 18 18 18 17 17 17 17 17 17 17 17 17 16 16 16 16 16 16 16 16 16 16 16 16 16 16 16 16
19 19 18 19 20 19 18 17 17 18 18 18 18 18 18 19 19 18 18 18 18 18 17 17 17 17 17 17 17 17 17 16 16 16 16 16 16 16 16 16 16 16 16 16 16 16 16 15 15
20 19 19 19 20 19 18 18 17 18 18 18 18 18 18 19 19 18 18 18 18 18 18 17 17 17 17 17 17 17 16 16 16 16 16 16 16 16 16 16 16 16 16 15 15 16 15 15 15
19 19 19 19 19 19 18 18 18 18 18 18 19 19 19 19 19 18 18 18 18 18 18 17 17 17 17 17 16 16 16 16 16 16 16 16 16 16 16 16 16 15 15 15 15 15 15 15 15
19 20 20 20 18 17 18 16 17 17 17 17 18 18 19 19 19 19 19 18 18 18 18 17 17 17 17 16 16 16 16 16 16 16 16 16 16 15 15 15 15 15 15 15 15 15 15 15 15
20 20 20 19 18 17 17 16 16 17 17 17 18 18 19 19 19 19 19 19 18 18 18 17 17 17 17 16 16 16 16 16 16 16 16 15 15 15 15 15 15 15 15 15 15 15 15 15 15
20 19 18 17 16 16 17 17 16 16 17 18 18 18 19 19 19 19 19 19 18 18 18 17 17 17 16 16 16 16 16 16 16 16 16 15 15 15 15 15 15 15 15 15 15 15 15 15 15
19 17 16 16 15 16 17 17 17 18 18 19 18 18 19 19 19 18 18 18 18 18 18 17 17 17 17 16 16 16 16 16 16 16 16 16 15 15 15 15 15 15 15 15 15 15 15 15 15
18 17 16 16 16 16 17 17 18 19 19 20 19 19 19 18 19 19 19 18 18 18 18 18 17 17 17 17 16 16 16 16 16 16 16 16 15 15 15 15 15 15 15 15 15 15 15 15 15
19 17 17 16 17 16 17 17 18 19 18 18 18 18 18 18 19 19 19 18 18 18 18 18 17 17 17 17 16 16 16 16 16 16 16 16 15 15 15 15 15 15 15 15 15 15 15 15 15
19 18 16 16 16 16 17 17 17 18 18 18 17 18 18 18 18 18 18 18 18 18 18 18 17 17 17 17 16 16 16 16 16 16 16 15 15 15 15 15 15 15 15 15 15 15 15 15 14
19 18 16 15 15 16 16 17 18 17 17 17 17 18 18 18 18 18 18 18 18 18 18 17 17 17 17 17 16 16 16 16 16 16 16 15 15 15 15 15 15 15 15 15 15 15 14 14 14
19 18 16 16 16 15 15 16 19 18 18 18 18 18 19 19 19 18 18 18 18 18 18 17 17 17 17 17 16 16 16 16 16 16 15 15 15 15 15 15 15 15 15 15 15 15 14 14 14
Wind_Speed
3 1 3 3 4 4 2 1 0 2 4 5 10 11 9 6 4 6 3 9 10 8 11 14 15 15 14 14 14 14 14 14 14 14 14 13 13 13 13 12 12 12 11 11 10 10 9 9 8
0 1 3 4 4 3 1 0 3 5 7 7 8 9 9 7 5 7 5 10 11 9 10 13 15 14 14 14 14 14 14 14 13 13 13 13 13 12 12 12 11 11 10 10 9 9 8 7 7
1 2 3 3 3 3 3 2 4 6 7 5 6 6 5 4 4 3 7 11 10 9 11 14 15 14 14 14 14 13 14 14 14 13 13 12 12 12 12 11 11 11 10 9 8 8 7 7 6
2 3 4 4 3 1 4 3 4 6 7 7 7 6 5 3 3 7 11 11 11 8 11 14 14 14 13 13 13 13 14 14 13 13 12 12 11 11 11 11 10 10 9 8 8 7 7 6 6
4 4 4 3 2 1 2 2 4 7 5 6 7 7 4 4 10 12 10 10 11 8 10 13 15 14 14 14 13 14 13 13 12 11 11 11 11 10 10 10 9 9 9 8 7 6 5 5 5
4 4 4 2 2 1 2 4 7 11 9 8 8 7 4 5 10 10 9 9 9 8 8 11 14 14 14 14 13 13 12 12 11 10 10 10 9 9 9 9 8 8 7 6 5 5 5 5 5
4 4 2 3 3 2 2 4 7 8 7 5 5 6 4 5 7 9 9 8 7 7 7 7 10 12 13 13 13 12 11 10 10 9 8 8 8 7 7 8 7 6 6 5 4 3 4 4 5
5 4 2 1 3 2 1 3 5 7 6 5 4 7 6 6 8 9 8 8 7 6 5 6 7 9 10 10 11 11 10 9 8 7 7 7 6 6 6 6 6 5 4 4 3 2 2 3 3
4 5 2 1 3 2 3 6 5 6 8 5 4 5 8 11 11 10 8 6 5 5 3 4 5 6 7 7 9 9 8 7 6 5 4 4 3 3 4 5 5 4 3 2 1 2 3 4 4
4 3 1 1 3 4 4 6 6 6 8 7 9 9 11 12 12 10 9 7 6 5 4 3 4 4 6 5 5 4 4 4 3 2 2 3 3 3 4 4 4 3 1 0 2 3 3 4 4
3 4 2 2 3 6 6 5 5 8 6 8 13 14 12 11 10 10 8 7 6 5 5 4 3 4 4 3 4 3 2 2 2 2 2 3 4 3 3 2 2 1 0 1 3 4 3 3 3
4 2 3 3 4 5 5 4 6 5 6 10 14 14 11 10 9 8 8 7 5 5 5 5 4 4 4 5 3 2 2 2 2 2 3 4 3 2 2 2 1 1 1 1 2 2 2 3 3
4 2 4 5 7 6 8 6 6 6 9 11 13 12 11 10 7 6 6 6 6 6 5 4 5 5 4 4 2 3 2 2 3 3 4 6 4 2 2 1 1 0 0 1 2 2 3 4 4
4 5 5 4 5 4 8 5 5 6 11 12 12 10 10 10 9 7 6 6 6 6 6 4 5 5 5 3 3 2 3 3 5 4 5 6 5 4 3 2 2 1 2 3 3 3 3 3 3
5 5 4 1 3 3 6 4 4 8 12 12 10 9 8 8 8 9 8 7 7 6 6 5 5 5 5 4 4 4 4 5 4 4 6 6 7 6 4 3 2 2 4 5 5 4 4 3 4
4 4 2 3 3 3 5 4 4 8 12 11 9 8 7 7 7 8 8 7 7 7 6 5 6 5 5 4 4 4 5 6 4 5 6 7 7 7 6 4 2 4 5 5 3 3 4 4 4
1 3 4 3 3 3 4 5 6 7 11 11 9 8 7 6 6 6 8 8 8 8 7 6 6 6 5 4 4 5 6 6 5 7 7 7 8 8 7 4 4 5 5 3 3 3 3 4 4
4 4 4 4 3 4 4 5 6 7 9 10 9 9 8 8 8 7 8 8 7 7 7 7 6 5 5 4 4 4 4 4 5 6 6 7 8 8 8 5 5 6 4 4 4 4 4 3 3
4 4 4 4 4 4 5 6 7 7 8 9 9 9 10 9 7 7 8 7 7 7 7 6 6 5 4 3 3 3 2 2 3 4 6 7 7 7 7 4 4 4 4 4 4 3 5 4 2
3 3 2 2 4 3 4 5 6 7 10 11 11 11 11 8 6 7 7 7 8 8 7 6 7 5 5 3 3 3 3 2 2 2 5 6 6 6 6 4 3 3 4 4 4 4 3 2 2
3 5 5 4 1 1 3 2 5 5 6 8 10 10 10 11 11 9 8 8 8 8 8 7 6 6 5 4 3 3 4 4 3 3 2 3 5 6 6 6 5 3 3 3 3 3 4 2 2
3 4 5 5 4 2 3 3 6 6 7 9 10 10 10 10 10 10 9 9 9 9 8 8 7 6 6 6 5 5 4 3 1 1 1 3 5 6 7 6 6 4 3 3 3 3 3 3 1
5 3 3 3 4 1 2 2 6 4 7 11 12 12 12 11 12 11 10 10 9 9 9 8 7 6 6 6 7 6 4 3 2 2 3 3 3 5 6 6 5 4 3 3 3 4 4 3 2
4 4 4 4 3 2 5 5 6 6 10 10 11 11 11 10 10 10 9 8 7 7 7 7 7 6 6 7 7 7 7 5 4 3 3 2 2 2 4 5 5 4 3 3 3 4 4 3 3
5 5 3 3 1 5 3 4 7 8 9 11 13 12 11 10 11 10 9 9 8 8 8 8 8 7 7 7 7 7 7 7 6 5 4 3 2 1 1 3 3 3 3 4 4 4 4 3 3
5 7 6 4 4 3 2 4 6 6 5 7 10 11 11 10 10 11 11 11 10 10 9 9 9 8 7 7 6 6 6 5 4 5 4 4 3 2 2 3 4 4 5 5 5 4 3 3 3
5 4 6 5 2 1 3 3 4 2 5 6 9 10 11 11 11 11 10 11 10 10 10 10 9 8 7 7 6 6 6 6 5 5 4 3 2 3 4 4 5 5 5 5 5 4 4 4 4
5 5 5 4 3 2 3 3 4 4 5 7 9 10 10 10 10 10 9 10 10 9 8 8 9 9 7 8 7 6 6 6 6 5 5 4 3 3 4 4 4 4 4 5 5 4 3 5 4
2 3 4 4 4 4 3 5 5 8 8 8 9 9 10 10 11 10 9 9 8 8 8 8 8 7 7 7 7 7 6 5 5 5 5 5 4 4 4 4 4 4 4 4 5 4 4 4 4
5 5 6 5 3 4 3 6 4 6 6 7 8 8 8 9 9 9 9 8 8 9 9 9 8 8 7 7 7 7 6 6 6 5 5 5 5 4 5 4 4 4 4 4 4 4 3 4 3
Wind_Direction
264 252 102 74 62 59 54 309 183 83 62 58 74 84 84 61 81 125 142 133 127 129 129 125 122 117 114 112 110 108 106 104 101 100 99 97 96 96 96 97 96 93 92 91 91 89 89 89 83
285 104 76 66 85 88 24 270 84 85 126 120 76 72 73 68 72 103 121 133 129 129 129 125 122 118 117 113 109 108 108 107 105 103 101 99 98 96 96 95 95 95 94 93 92 90 89 88 82
240 140 95 78 102 148 157 161 114 93 95 94 78 58 69 85 94 106 135 134 127 124 128 128 124 122 119 116 113 110 111 110 107 106 104 101 100 99 98 96 96 96 96 95 93 91 88 85 79
83 58 63 77 88 160 160 165 135 104 72 60 95 70 62 62 94 124 131 126 123 123 128 131 128 127 124 121 119 116 114 111 110 108 107 105 103 100 98 98 99 98 98 97 95 90 86 79 71
79 80 66 73 84 61 129 140 114 95 83 78 94 88 59 37 104 120 124 123 124 125 128 132 131 131 129 126 123 120 119 116 114 111 110 109 107 105 102 102 103 102 99 97 95 92 85 75 63
65 71 88 102 110 57 58 82 90 92 102 100 95 98 80 100 114 123 123 122 125 127 127 132 132 132 133 132 129 128 126 123 119 115 112 112 110 109 109 109 109 106 101 97 93 92 80 67 58
101 92 116 137 124 89 81 84 92 104 99 94 109 101 113 124 128 127 120 116 116 121 125 126 132 134 137 138 137 136 134 129 124 120 119 118 118 118 117 118 116 112 105 97 92 85 69 58 55
123 101 78 117 131 116 67 86 94 96 90 94 95 124 148 156 137 123 113 109 110 109 118 125 135 135 135 141 144 144 142 137 133 130 132 129 127 128 130 128 127 121 113 103 90 66 46 38 38
88 81 98 171 145 141 117 100 79 71 89 71 64 113 139 137 126 115 109 105 115 119 124 133 139 145 144 146 151 150 145 144 144 148 157 147 139 145 151 151 146 137 122 104 67 19 11 16 19
84 111 197 177 148 132 104 103 112 94 84 83 87 99 122 128 129 130 132 135 137 145 157 154 153 163 160 154 146 149 146 146 149 164 170 158 170 179 175 177 170 163 161 11 355 355 353 1 11
125 148 149 81 109 110 95 89 97 115 107 136 137 140 138 134 137 142 143 147 151 153 152 152 156 163 156 142 150 145 139 138 137 155 164 157 154 156 163 179 189 198 226 359 351 358 356 6 32
117 127 133 116 94 96 97 93 91 102 142 149 145 147 145 144 147 150 153 155 149 144 145 151 158 157 154 142 141 142 140 123 128 119 121 134 135 145 175 199 206 240 273 357 355 8 11 50 69
103 119 109 105 92 101 101 98 101 109 124 131 137 142 147 149 150 155 159 149 138 140 148 156 149 142 135 127 139 126 123 118 113 105 116 133 131 135 142 161 153 183 154 122 100 69 63 69 76
134 118 108 106 103 107 111 109 105 136 136 136 141 146 152 156 156 155 153 146 146 145 148 147 134 125 120 122 120 109 112 104 89 86 97 112 119 118 117 107 98 87 109 115 100 79 70 62 75
108 95 71 88 126 137 113 85 136 153 146 143 150 154 155 158 157 162 166 158 154 147 145 140 134 114 114 115 110 104 101 94 83 84 94 101 104 107 100 91 77 83 101 99 87 72 67 66 70
98 96 120 246 174 168 116 153 191 163 151 151 159 159 158 164 168 170 162 156 154 145 137 136 132 118 110 109 103 96 88 87 82 80 83 87 93 98 93 86 75 84 88 86 79 69 64 57 64
83 149 183 227 206 155 127 171 197 174 161 163 167 164 164 168 174 175 169 163 161 151 140 133 125 119 112 105 93 85 84 82 83 78 76 82 91 96 93 85 79 84 80 72 87 74 84 77 73
185 175 183 198 212 157 153 181 190 182 169 171 174 173 172 182 190 179 164 165 160 149 143 136 125 121 114 100 86 71 65 64 71 73 76 85 89 94 92 87 77 79 76 65 74 77 66 74 82
161 156 183 212 199 162 174 183 199 189 178 176 183 184 184 194 193 174 163 161 150 147 146 144 140 135 120 109 107 99 86 71 61 60 76 85 91 96 92 86 71 72 82 84 89 88 71 51 60
160 153 182 198 182 162 182 209 213 202 193 188 187 190 190 186 176 172 169 164 162 162 160 155 150 144 136 139 138 133 126 101 87 61 67 76 89 97 103 99 86 79 87 75 74 88 86 48 50
193 186 192 176 139 108 137 272 237 227 203 194 192 191 191 184 179 181 178 174 167 167 166 162 161 157 151 136 109 90 69 57 50 46 46 46 86 96 105 104 98 88 93 95 90 103 111 99 29
220 208 173 159 143 222 174 227 255 215 206 203 199 191 191 188 180 178 177 176 176 174 164 156 156 152 148 136 129 132 128 130 151 128 79 57 78 94 103 102 102 96 94 97 100 106 116 119 98
197 181 147 162 156 181 201 188 269 199 206 210 203 196 193 189 182 180 181 180 173 167 163 159 155 150 150 147 147 137 133 146 133 100 90 67 55 78 97 102 101 97 92 99 96 90 93 104 121
140 87 56 58 81 254 218 188 255 220 207 202 199 194 190 183 181 180 178 164 158 157 158 155 153 156 157 152 150 145 146 144 133 127 122 90 57 53 74 94 96 98 100 100 99 98 95 93 96
101 100 58 23 11 255 225 193 242 236 211 194 187 186 184 179 176 171 166 162 164 162 162 161 157 164 168 159 158 159 157 154 156 155 151 136 105 80 68 86 95 96 104 102 96 92 85 83 90
173 148 159 183 209 269 280 226 257 247 200 174 172 170 168 173 176 176 174 174 174 172 168 165 164 167 169 164 163 161 157 154 156 159 155 153 152 156 136 102 103 104 103 100 93 87 84 80 81
150 174 173 144 178 225 260 277 316 46 121 139 152 159 167 177 180 180 175 176 176 175 174 170 167 168 172 168 160 160 159 156 155 152 146 150 154 143 124 110 101 93 93 97 95 86 76 81 78
154 151 103 127 159 225 262 250 232 214 176 161 164 173 178 181 181 176 175 178 179 176 171 168 168 171 169 165 166 165 164 162 154 145 150 149 150 131 127 117 110 101 94 94 95 87 79 83 75
127 124 123 136 161 164 226 265 227 203 192 176 179 179 180 181 180 177 178 180 174 163 163 165 168 165 163 164 162 157 162 158 148 149 157 153 149 139 133 132 127 118 109 105 104 100 97 93 77
170 171 150 159 199 175 180 266 283 188 182 173 179 177 175 173 175 174 175 172 167 168 171 168 169 169 169 162 157 157 155 149 145 150 155 149 148 142 138 133 131 130 122 115 117 117 102 100 92
Height
1514 1514 1514 1515 1517 1524 1527 1521 1514 1513 1513 1515 1514 1515 1519 1524 1527 1535 1533 1533 1535 1536 1538 1538 1539 1540 1540 1541 1541 1541 1542 1543 1544 1544 1545 1545 1546 1546 1547 1547 1548 1548 1549 1549 1550 1550 1550 1551 1551
1513 1513 1515 1515 1522 1532 1529 1519 1516 1513 1514 1515 1516 1519 1521 1526 1527 1530 1531 1533 1535 1536 1538 1539 1539 1540 1541 1541 1541 1542 1543 1543 1544 1545 1546 1546 1546 1547 1547 1548 1548 1549 1550 1550 1551 1551 1551 1552 1552
1513 1513 1515 1517 1524 1529 1526 1518 1515 1514 1514 1515 1519 1522 1525 1528 1529 1530 1532 1534 1536 1537 1538 1539 1540 1541 1541 1542 1542 1543 1543 1544 1545 1546 1546 1547 1547 1548 1548 1549 1549 1550 1550 1551 1552 1552 1552 1552 1553
1512 1514 1515 1521 1524 1521 1518 1516 1514 1514 1516 1517 1520 1525 1528 1531 1531 1531 1533 1535 1536 1538 1539 1540 1541 1541 1542 1542 1543 1544 1544 1545 1546 1547 1547 1548 1548 1549 1549 1549 1550 1551 1551 1552 1552 1553 1553 1553 1554
1511 1513 1518 1524 1523 1518 1515 1515 1513 1514 1517 1521 1521 1527 1531 1533 1532 1533 1534 1536 1537 1539 1540 1541 1541 1542 1543 1543 1544 1545 1545 1546 1547 1548 1548 1549 1549 1550 1550 1550 1551 1551 1552 1553 1553 1554 1554 1554 1555
1511 1513 1525 1529 1524 1518 1516 1515 1515 1517 1520 1523 1524 1528 1533 1534 1534 1535 1537 1538 1539 1540 1541 1542 1542 1543 1543 1544 1545 1546 1547 1547 1548 1549 1549 1550 1550 1550 1551 1551 1552 1552 1553 1553 1554 1555 1555 1555 1555
1512 1517 1524 1525 1524 1521 1518 1517 1517 1519 1521 1524 1525 1529 1534 1536 1536 1537 1538 1539 1540 1541 1542 1543 1543 1544 1545 1546 1546 1547 1548 1549 1549 1550 1550 1551 1551 1552 1552 1553 1553 1553 1554 1554 1555 1556 1556 1556 1556
1512 1517 1523 1525 1524 1523 1519 1518 1520 1520 1523 1525 1526 1529 1533 1536 1537 1538 1539 1540 1541 1542 1543 1544 1544 1545 1546 1547 1547 1548 1549 1550 1551 1552 1552 1552 1553 1553 1554 1554 1554 1555 1555 1556 1556 1557 1557 1557 1558
1513 1522 1527 1524 1523 1522 1519 1519 1522 1523 1523 1525 1527 1528 1532 1535 1538 1539 1541 1541 1543 1543 1544 1545 1546 1547 1548 1548 1549 1550 1551 1552 1552 1553 1553 1554 1554 1555 1555 1556 1556 1556 1557 1557 1558 1558 1558 1558 1559
1514 1524 1523 1519 1518 1519 1519 1520 1522 1525 1526 1528 1529 1532 1534 1536 1538 1540 1541 1542 1543 1544 1545 1546 1547 1548 1549 1550 1550 1551 1552 1553 1554 1554 1555 1555 1556 1556 1557 1557 1557 1558 1558 1558 1559 1559 1559 1559 1560
1515 1520 1519 1518 1518 1519 1520 1521 1523 1525 1528 1529 1530 1533 1535 1537 1539 1541 1542 1543 1544 1546 1547 1548 1549 1549 1550 1551 1552 1553 1553 1554 1555 1556 1556 1556 1557 1557 1558 1558 1559 1559 1559 1560 1560 1560 1560 1560 1561
1516 1518 1518 1519 1519 1519 1521 1523 1524 1525 1528 1529 1530 1533 1536 1538 1540 1541 1543 1544 1545 1547 1548 1549 1550 1551 1551 1552 1554 1554 1555 1555 1556 1556 1557 1558 1558 1558 1559 1559 1560 1560 1560 1561 1561 1561 1561 1561 1561
1517 1519 1519 1519 1520 1521 1522 1524 1526 1528 1529 1531 1533 1535 1537 1539 1541 1543 1544 1545 1546 1547 1549 1550 1551 1552 1553 1554 1555 1556 1556 1556 1557 1557 1558 1559 1559 1559 1560 1560 1560 1561 1561 1561 1562 1562 1562 1562 1562
1518 1519 1520 1521 1522 1523 1524 1527 1527 1531 1531 1533 1534 1536 1538 1539 1541 1543 1545 1546 1547 1548 1549 1551 1552 1553 1554 1555 1556 1557 1557 1558 1558 1559 1559 1560 1560 1560 1561 1561 1561 1561 1562 1562 1562 1562 1563 1563 1563
1518 1521 1523 1523 1523 1525 1525 1530 1530 1531 1532 1534 1535 1537 1539 1540 1542 1543 1544 1546 1547 1549 1550 1552 1553 1554 1555 1556 1557 1558 1558 1559 1559 1559 1560 1561 1561 1561 1561 1562 1562 1562 1562 1563 1563 1563 1563 1563 1564
1520 1526 1531 1525 1523 1524 1529 1537 1531 1531 1533 1534 1536 1537 1539 1541 1542 1543 1545 1546 1548 1549 1551 1552 1554 1555 1556 1557 1558 1559 1559 1560 1560 1560 1561 1561 1562 1562 1562 1562 1562 1563 1563 1563 1564 1564 1564 1564 1564
1527 1533 1532 1528 1523 1524 1528 1534 1531 1531 1532 1534 1536 1537 1539 1541 1542 1543 1545 1546 1548 1549 1551 1552 1554 1555 1556 1557 1558 1559 1560 1560 1561 1561 1561 1562 1562 1563 1563 1563 1563 1564 1564 1564 1564 1564 1565 1565 1565
1532 1531 1530 1529 1524 1525 1529 1531 1530 1531 1532 1533 1535 1536 1538 1540 1541 1543 1544 1546 1548 1550 1551 1552 1554 1555 1556 1557 1559 1559 1560 1561 1561 1562 1562 1562 1563 1563 1563 1564 1564 1564 1564 1565 1565 1565 1566 1566 1566
1521 1526 1529 1526 1522 1526 1529 1531 1530 1529 1531 1532 1534 1535 1536 1538 1541 1542 1544 1545 1547 1549 1551 1552 1554 1555 1556 1558 1559 1559 1560 1561 1562 1563 1563 1563 1563 1564 1564 1564 1565 1565 1565 1565 1566 1566 1566 1566 1567
1520 1526 1528 1524 1521 1525 1530 1531 1528 1528 1528 1529 1531 1532 1535 1537 1539 1541 1543 1544 1546 1548 1550 1552 1553 1555 1556 1558 1559 1560 1561 1562 1563 1563 1564 1564 1564 1564 1565 1565 1566 1566 1566 1566 1566 1567 1567 1567 1567
1520 1524 1525 1525 1523 1524 1530 1534 1530 1527 1527 1528 1529 1530 1532 1534 1536 1539 1541 1543 1545 1547 1549 1551 1553 1555 1556 1558 1559 1560 1561 1562 1563 1563 1564 1564 1565 1565 1565 1566 1566 1566 1567 1567 1567 1567 1567 1567 1568
1523 1516 1518 1521 1530 1536 1532 1546 1532 1526 1526 1525 1526 1528 1530 1532 1534 1537 1539 1542 1544 1546 1548 1551 1553 1554 1556 1557 1558 1560 1561 1561 1563 1563 1564 1565 1565 1566 1566 1566 1567 1567 1567 1567 1567 1568 1568 1568 1568
1516 1513 1516 1520 1528 1535 1534 1542 1535 1525 1526 1523 1522 1524 1527 1529 1532 1535 1537 1540 1543 1545 1548 1550 1552 1554 1555 1557 1558 1559 1561 1562 1563 1564 1564 1565 1565 1566 1566 1567 1567 1567 1567 1567 1568 1568 1568 1568 1568
1511 1516 1520 1526 1533 1543 1534 1539 1537 1524 1518 1516 1517 1520 1523 1526 1530 1533 1536 1539 1542 1544 1547 1549 1551 1553 1554 1556 1557 1559 1560 1561 1562 1563 1564 1565 1566 1566 1567 1567 1567 1568 1568 1568 1568 1568 1568 1568 1568
1513 1528 1542 1545 1549 1545 1529 1532 1528 1511 1508 1509 1512 1516 1520 1524 1527 1531 1534 1537 1540 1542 1545 1548 1550 1551 1553 1555 1557 1558 1560 1561 1562 1563 1564 1565 1566 1566 1567 1567 1568 1568 1568 1568 1568 1568 1568 1568 1568
1515 1523 1541 1549 1550 1542 1529 1531 1519 1505 1504 1505 1509 1513 1518 1522 1525 1528 1531 1534 1537 1540 1543 1546 1548 1550 1552 1554 1556 1558 1559 1560 1562 1563 1564 1565 1566 1566 1567 1567 1568 1568 1568 1569 1569 1569 1568 1568 1568
1513 1520 1521 1533 1536 1541 1534 1524 1513 1505 1505 1506 1509 1513 1516 1520 1523 1526 1529 1532 1535 1538 1541 1544 1546 1549 1551 1553 1555 1557 1558 1560 1561 1562 1564 1565 1565 1566 1567 1568 1568 1568 1569 1569 1569 1569 1569 1569 1569
1506 1512 1524 1532 1542 1545 1535 1529 1524 1513 1509 1508 1509 1511 1514 1517 1520 1523 1526 1530 1533 1536 1539 1542 1545 1547 1550 1552 1554 1556 1558 1559 1561 1562 1563 1564 1565 1566 1567 1568 1568 1568 1569 1569 1569 1569 1569 1569 1569
1510 1513 1520 1529 1533 1541 1542 1532 1508 1508 1506 1507 1508 1510 1512 1515 1518 1521 1524 1528 1531 1534 1538 1541 1543 1546 1548 1551 1553 1555 1557 1558 1560 1561 1562 1563 1564 1566 1566 1567 1568 1568 1569 1569 1569 1570 1570 1569 1569
1503 1508 1517 1529 1532 1532 1536 1529 1501 1501 1503 1504 1506 1509 1511 1513 1516 1519 1522 1526 1529 1532 1536 1539 1541 1544 1547 1549 1551 1553 1555 1557 1559 1560 1562 1563 1564 1565 1566 1567 1568 1569 1569 1569 1570 1570 1570 1570 1569